Regional Weather Roundup
Issued by NWS Charleston, SC

Current Version | Previous Version | Graphics & Text | Print | Product List | Glossary On
Versions: 1 2 3 4 5 6 7 8 9 10 11 12 13 14 15 16 17 18 19 20 21 22 23 24 25 26 27 28 29 30 31 32 33 34 35 36 37 38 39 40 41 42 43 44 45 46 47 48 49 50
000
ASUS42 KCHS 271925
RWRCHS

REGIONAL WEATHER ROUNDUP
NATIONAL WEATHER SERVICE CHARLESTON SC
200 PM EST THU NOV 27 2014

NOTE: "FAIR" INDICATES FEW OR NO CLOUDS BELOW 12,000 FEET WITH NO
SIGNIFICANT WEATHER AND/OR OBSTRUCTIONS TO VISIBILITY.

NOT ALL STATIONS ARE QUALITY CONTROLLED BY THE NATIONAL
WEATHER SERVICE. USE DATA WITH CAUTION...ESPECIALLY
DEWPOINT OBSERVATIONS.

SCZ027-030-031-034>040-042>050-272000-
...SOUTHEAST SOUTH CAROLINA...

CITY           SKY/WX    TMP DP  RH WIND       PRES   REMARKS
N CHARLESTON   MOSUNNY   55  29  36 NW21G30   30.11S
WATERFRONT PRK   N/A     55 N/A N/A NW12G25     N/A
MOUNT PLEASANT FAIR      54  32  43 NW14G24   30.11R
JOHNS ISLAND   PTCLDY    55  36  47 W20G28    30.11S
PINOPOLIS        N/A     54  36  50 NW18      30.04R
MONCKS CORNER  FAIR      55  36  47 NW5       30.11S
SUMMERVILLE    FAIR      55  32  41 W16G25    30.12S
BEAUFORT MCAS  MOSUNNY   56  29  35 W23G29    30.14S
BEAUFORT ARPT  FAIR      55  34  44 W18G26    30.13S
HILTON HEAD IS SUNNY     55  32  41 W12G29    30.14F
WALTERBORO     PTCLDY    57  23  26 NW17G24   30.13S
ALLENDALE      MOCLDY    55  30  38 NW12G21   30.15R

...SOUTHERN MIDLANDS AND PEE DEE...

CITY           SKY/WX    TMP DP  RH WIND       PRES   REMARKS
GEORGETOWN     NOT AVBL
KINGSTREE      NOT AVBL
ORANGEBURG     MOSUNNY   55  29  36 N15G22    30.12F
BARNWELL       FAIR      54  32  43 NW12G20   30.16S
AIKEN          MOCLDY    54  32  43 NW14G22   30.18S
MANNING        NOT AVBL
COLUMBIA       PTSUNNY   55  28  35 NW17      30.13S
SUMTER         MOSUNNY   53  27  36 W14G21    30.09S
FLORENCE       PTSUNNY   54  31  41 NW13      30.08R
MYRTLE BEACH   NOT AVBL
N MYRTLE BEACH PTSUNNY   54  34  46 W15G26    30.04R

$$

GAZ063-065-086>088-099>101-113>116-118-119-134>141-150-272000-
...SOUTHEAST GEORGIA...

CITY           SKY/WX    TMP DP  RH WIND       PRES   REMARKS
SAVANNAH ARPT  MOSUNNY   58  28  32 W17G29    30.16F
HUNTER AAF     SUNNY     57  30  35 W24G31    30.13F
FORT STEWART   SUNNY     56  29  35 W20G28    30.16F
STATESBORO     NOT AVBL
SYLVANIA       PTCLDY    56  33  41 NW17G26   30.17S
CLAXTON        FAIR      55   5  13 W17G26    30.18F

...CSRA...CENTRAL AND FAR SOUTHEAST GEORGIA...

CITY           SKY/WX    TMP DP  RH WIND       PRES   REMARKS
THOMSON        SUNNY     54  37  53 W17       30.24R
AUGUSTA-BUSH   MOSUNNY   53  28  38 NW17G31   30.18S
AUGUSTA-DANIEL MOSUNNY   53  29  39 NW18G25   30.18S
SWAINSBORO     FAIR      55  34  44 NW20G26   30.21R
VIDALIA        SUNNY     55  32  41 NW14G23   30.21S
HAZLEHURST     FAIR      57  32  38 NW10G21   30.21R
ALMA           SUNNY     56  30  37 NW17G25   30.21F
WAYCROSS       MOSUNNY   60  35  39 NW17G24   30.21F
JESUP          FAIR      59  34  38 NW18G28   30.19S
BAXLEY         FAIR      57  32  38 NW14G20   30.20S
BRUNSWICK      SUNNY     59  30  33 W15G28    30.19S
SAINT SIMONS   SUNNY     57  32  38 W16G28    30.18F

$$

SCZ027-028-034-036>038-045-046-048>050-GAZ119-141-272000-
...LAKE AND SUPPLEMENTAL COASTAL OBSERVATIONS...

STATION/POSITION TIME  TEMP    WIND        PRES    WAVE   SWELL
                       AIR SEA DIR/SP/G            HT/PER HT/PER/DIR
                 (UTC) (F)     (DEG/KT/KT) (MB)    (FT/S) (FT/S/D)
UPR LAKE MARION  NOT AVBL
WINYAH BAY       1900   54     280/ 12     1018.0S
LAKE MURRAY      1800   51     300/  8/ 17 1020.0R
ACE BASIN NERRS  1900   55     310/  6     1020.0S
FORT PULASKI     1900   54     290/ 20/ 24 1021.0F
SAPELO ISLAND    1900   56     290/ 17     1021.0F

$$

ANZ835-935-AMZ111-154-330-350-352-354-370-450-454-472-272000-
...C-MAN AND BUOY OBSERVATIONS...

STATION/POSITION TIME  TEMP    WIND        PRES    WAVE   SWELL
                       AIR SEA DIR/SP/G            HT/PER HT/PER/DIR
                 (UTC) (F)     (DEG/KT/KT) (MB)    (FT/S) (FT/S/D)
FOLLY BEACH CMAN 1900   55     310/ 13/ 22 1019.9F
BUOY 41004       1900   55 73  290/ 23/ 29 1018.0S   7/ 7   2/10
BUOY 41008       1900   55 63  300/ 19/ 23 1020.9F   4/ 4
CAPERS NEARSHORE NOT AVBL
FRIPP NEARSHORE  NOT AVBL


STATION/POSITION TIME  TEMP    WIND        PRES    WAVE   SWELL
                       AIR SEA DIR/SP/G            HT/PER HT/PER/DIR
                 (UTC) (F)     (DEG/KT/KT) (MB)    (FT/S) (FT/S/D)
5E ST. MARYS GA  1900      62                N/A     3/ 4
FRYING PAN BUOY  1900   54 71  280/ 23/ 29 1016.6S   7/ 7
BUOY 41025       1900   61     250/ 19/ 27 1012.2F   5/ 9   5/ 90/ 9
CAPE LOOKOUT NC  1900   54     260/ 20/ 23 1013.9R
BUOY 41002       1822   69 73  260/ 21/ 25 1015.4F   8/ 7
BUOY 41010       1900   68 78  280/ 17/ 23 1019.7F   7/ 9   3/110/ 9
ST AUGUSTINE FL  1900   60     280/ 13/ 16 1022.5F


$$


USA.gov is the U.S. government's official web portal to all federal, state and local government web resources and services.